Date String (YYYY-MM-DD hh:mm:ss) UTC,Instrument flags,absolute air pressure of the measurement (hPa),sample flow rate (lpm),inlet stack bypass flow (lpm),air temperature of the measurement (°C),ambient temperature measured by the external sensor (°C),aerosol sample conditioner tube jacket temperature (°C),OPC LED temperature (°C),internal box temperature (°C),relative humidity of the measurement (%),span deviation,mass concentration of particles derived from Lorenz-Mie calculation of OPC scattering (μg/m³),mass concentration of particles derived from Lorenz-Mie calculation of OPC scattering (μg/m³),mass concentration of particles derived from Lorenz-Mie calculation of OPC scattering (μg/m³)
DateTimeUTC,F1_M11,P_M11,Q1_M11,Q2_M11,T1_M11,T2_M11,T3_M11,T4_M11,T5_M11,U1_M11,ZSPAN_M11,X0_M11,X2_M11,X1_M11
2024-06-08 08:00:00,SystemResetWarning,0827.8,4.99,000.00,030.4,029.9,000.0,038.5,032.1,021.8,0000.0,0015.73,0004.09,0002.88
2024-06-08 08:01:00,SystemResetWarning,0827.8,5.00,000.00,030.4,029.9,000.0,038.5,032.1,021.8,0000.0,0015.18,0004.03,0002.87
2024-06-08 08:02:00,SystemResetWarning,0827.9,5.00,000.00,030.4,029.9,000.0,038.5,032.2,021.5,0000.0,0014.13,0004.00,0002.86
2024-06-08 08:03:00,SystemResetWarning,0827.8,5.00,000.00,030.4,029.9,000.0,038.6,032.2,021.3,0000.0,0013.89,0004.00,0002.86
2024-06-08 08:04:00,SystemResetWarning,0827.8,4.99,000.00,030.4,029.5,000.0,038.6,031.9,021.2,0000.0,0013.12,0004.04,0002.87
2024-06-08 08:05:00,SystemResetWarning,0827.7,5.01,000.00,030.1,027.0,000.0,038.7,030.8,021.8,0000.0,0011.64,0004.06,0002.89
2024-06-08 08:06:00,SystemResetWarning,0827.7,5.02,000.00,029.7,026.4,000.0,038.6,030.4,022.2,0000.0,0011.89,0004.10,0002.90
2024-06-08 08:07:00,SystemResetWarning,0827.7,5.00,000.00,029.6,026.7,000.0,038.5,030.4,022.4,0000.0,0011.97,0004.10,0002.91
2024-06-08 08:08:00,SystemResetWarning,0827.7,4.99,000.00,029.5,027.1,000.0,038.4,030.7,022.4,0000.0,0010.89,0004.10,0002.91
2024-06-08 08:09:00,SystemResetWarning,0827.7,5.00,000.00,029.5,027.5,000.0,038.3,030.9,022.6,0000.0,0011.13,0004.14,0002.91
2024-06-08 08:10:00,SystemResetWarning,0827.7,4.98,000.00,029.6,027.9,000.0,038.2,031.1,022.8,0000.0,0011.68,0004.23,0002.92
2024-06-08 08:11:00,SystemResetWarning,0827.8,5.01,000.00,029.6,028.2,000.0,038.2,031.2,022.9,0000.0,0012.27,0004.25,0002.92
2024-06-08 08:12:00,SystemResetWarning,0827.7,5.00,000.00,029.6,028.4,000.0,038.2,031.3,023.0,0000.0,0012.20,0004.26,0002.93
2024-06-08 08:13:00,SystemResetWarning,0827.8,5.00,000.00,029.7,028.6,000.0,038.2,031.4,023.1,0000.0,0011.78,0004.27,0002.92
2024-06-08 08:14:00,SystemResetWarning,0827.8,5.00,000.00,029.7,028.8,000.0,038.1,031.4,023.2,0000.0,0011.82,0004.28,0002.92
2024-06-08 08:15:00,SystemResetWarning,0827.9,5.00,000.00,029.8,028.9,000.0,038.2,031.5,023.2,0000.0,0011.57,0004.23,0002.90
2024-06-08 08:16:00,SystemResetWarning,0827.8,5.00,000.00,029.8,029.0,000.0,038.2,031.5,023.1,0000.0,0011.51,0004.19,0002.88
2024-06-08 08:17:00,SystemResetWarning,0827.8,5.01,000.00,029.9,029.1,000.0,038.2,031.6,022.9,0000.0,0011.37,0004.16,0002.85
2024-06-08 08:18:00,SystemResetWarning,0827.7,4.99,000.00,029.9,029.2,000.0,038.2,031.6,022.7,0000.0,0011.08,0004.10,0002.83
2024-06-08 08:19:00,SystemResetWarning,0827.8,5.00,000.00,029.9,029.3,000.0,038.2,031.7,022.6,0000.0,0010.69,0004.05,0002.80
2024-06-08 08:20:00,SystemResetWarning,0827.8,4.99,000.00,030.0,029.4,000.0,038.2,031.7,022.6,0000.0,0010.42,0004.01,0002.77
2024-06-08 08:21:00,SystemResetWarning,0827.8,5.00,000.00,030.0,029.5,000.0,038.3,031.8,022.7,0000.0,0010.13,0003.94,0002.75
2024-06-08 08:22:00,SystemResetWarning,0827.8,4.99,000.00,030.1,029.5,000.0,038.3,031.8,022.6,0000.0,0009.75,0003.91,0002.73
2024-06-08 08:23:00,SystemResetWarning,0827.7,5.01,000.00,030.1,029.6,000.0,038.3,031.8,022.5,0000.0,0009.77,0003.91,0002.72
2024-06-08 08:24:00,SystemResetWarning,0827.8,5.01,000.00,030.1,029.6,000.0,038.3,031.9,022.5,0000.0,0009.69,0003.85,0002.71
2024-06-08 08:25:00,SystemResetWarning,0827.8,5.01,000.00,030.2,029.7,000.0,038.4,031.9,022.4,0000.0,0009.29,0003.80,0002.70
2024-06-08 08:26:00,SystemResetWarning,0827.8,5.00,000.00,030.2,029.7,000.0,038.4,032.0,022.4,0000.0,0010.12,0003.82,0002.71
2024-06-08 08:27:00,SystemResetWarning,0827.8,5.00,000.00,030.3,029.7,000.0,038.4,032.0,022.4,0000.0,0011.16,0003.77,0002.70
2024-06-08 08:28:00,SystemResetWarning,0827.7,5.01,000.00,030.3,029.8,000.0,038.4,032.0,022.3,0000.0,0012.53,0003.71,0002.69
2024-06-08 08:29:00,SystemResetWarning,0827.8,5.01,000.00,030.3,029.8,000.0,038.5,032.1,022.1,0000.0,0012.54,0003.69,0002.69
2024-06-08 08:30:00,SystemResetWarning,0827.8,5.00,000.00,030.4,029.8,000.0,038.5,032.1,021.9,0000.0,0012.45,0003.71,0002.71
2024-06-08 08:31:00,SystemResetWarning,0827.8,5.00,000.00,030.4,029.9,000.0,038.6,032.1,021.9,0000.0,0012.63,0003.73,0002.72
2024-06-08 08:32:00,SystemResetWarning,0827.8,5.00,000.00,030.4,029.9,000.0,038.6,032.2,021.9,0000.0,0013.58,0003.77,0002.74
2024-06-08 08:33:00,SystemResetWarning,0827.8,5.00,000.00,030.4,029.9,000.0,038.6,032.2,021.8,0000.0,0014.45,0003.78,0002.76
2024-06-08 08:34:00,SystemResetWarning,0827.8,5.00,000.00,030.5,030.0,000.0,038.6,032.2,021.8,0000.0,0015.68,0003.84,0002.78
2024-06-08 08:35:00,SystemResetWarning,0828.0,4.99,000.00,030.5,029.4,000.0,038.7,031.9,021.8,0000.0,0015.92,0003.88,0002.80
2024-06-08 08:36:00,SystemResetWarning,0827.8,5.00,000.00,030.1,027.0,000.0,038.7,030.8,022.3,0000.0,0016.48,0003.90,0002.84
2024-06-08 08:37:00,SystemResetWarning,0827.8,5.02,000.00,029.7,026.4,000.0,038.7,030.4,022.8,0000.0,0016.15,0003.92,0002.85
2024-06-08 08:38:00,SystemResetWarning,0827.8,4.99,000.00,029.6,026.7,000.0,038.5,030.5,023.0,0000.0,0015.44,0003.97,0002.89
2024-06-08 08:39:00,SystemResetWarning,0827.8,5.00,000.00,029.6,027.1,000.0,038.4,030.8,023.1,0000.0,0014.54,0004.04,0002.92
2024-06-08 08:40:00,SystemResetWarning,0827.9,5.00,000.00,029.6,027.6,000.0,038.3,030.9,023.0,0000.0,0014.80,0004.12,0002.94
2024-06-08 08:41:00,SystemResetWarning,0828.0,5.00,000.00,029.6,027.9,000.0,038.3,031.1,023.0,0000.0,0015.42,0004.18,0002.97
2024-06-08 08:42:00,SystemResetWarning,0828.1,5.00,000.00,029.6,028.2,000.0,038.2,031.2,023.0,0000.0,0016.41,0004.22,0003.00
2024-06-08 08:43:00,SystemResetWarning,0828.1,4.99,000.00,029.7,028.4,000.0,038.2,031.3,022.9,0000.0,0017.17,0004.23,0003.00
2024-06-08 08:44:00,SystemResetWarning,0828.1,5.00,000.00,029.7,028.6,000.0,038.2,031.4,022.8,0000.0,0017.78,0004.27,0003.02
2024-06-08 08:45:00,SystemResetWarning,0828.1,5.00,000.00,029.7,028.8,000.0,038.2,031.4,022.8,0000.0,0017.22,0004.28,0003.04
2024-06-08 08:46:00,SystemResetWarning,0828.1,5.00,000.00,029.8,028.9,000.0,038.2,031.5,022.8,0000.0,0018.09,0004.33,0003.06
2024-06-08 08:47:00,SystemResetWarning,0828.1,5.00,000.00,029.8,029.0,000.0,038.2,031.5,022.8,0000.0,0018.38,0004.35,0003.04
2024-06-08 08:48:00,SystemResetWarning,0828.1,5.00,000.00,029.9,029.1,000.0,038.2,031.6,022.8,0000.0,0018.07,0004.31,0003.04
2024-06-08 08:49:00,SystemResetWarning,0828.1,4.99,000.00,029.9,029.2,000.0,038.2,031.7,022.8,0000.0,0017.98,0004.31,0003.03
2024-06-08 08:50:00,SystemResetWarning,0828.1,5.00,000.00,029.9,029.3,000.0,038.2,031.7,022.7,0000.0,0019.42,0004.33,0003.03
2024-06-08 08:51:00,SystemResetWarning,0828.1,5.00,000.00,030.0,029.4,000.0,038.3,031.8,022.6,0000.0,0020.02,0004.32,0003.04
2024-06-08 08:52:00,SystemResetWarning,0828.1,5.01,000.00,030.0,029.4,000.0,038.3,031.8,022.6,0000.0,0020.78,0004.30,0003.04
2024-06-08 08:53:00,SystemResetWarning,0828.1,5.01,000.00,030.1,029.5,000.0,038.3,031.8,022.5,0000.0,0022.28,0004.28,0003.04
2024-06-08 08:54:00,SystemResetWarning,0828.1,4.99,000.00,030.1,029.5,000.0,038.3,031.9,022.5,0000.0,0020.98,0004.29,0003.05
2024-06-08 08:55:00,SystemResetWarning,0828.1,4.99,000.00,030.1,029.6,000.0,038.4,031.9,022.5,0000.0,0020.83,0004.34,0003.06
2024-06-08 08:56:00,SystemResetWarning,0828.0,4.99,000.00,030.2,029.6,000.0,038.4,031.9,022.6,0000.0,0020.52,0004.32,0003.03
2024-06-08 08:57:00,SystemResetWarning,0828.0,5.01,000.00,030.2,029.7,000.0,038.4,032.0,022.6,0000.0,0020.83,0004.32,0003.02
2024-06-08 08:58:00,SystemResetWarning,0828.1,5.01,000.00,030.2,029.7,000.0,038.5,032.0,022.7,0000.0,0020.97,0004.40,0003.03
2024-06-08 08:59:00,SystemResetWarning,0828.1,4.99,000.00,030.3,029.7,000.0,038.5,032.0,022.7,0000.0,0021.94,0004.45,0003.02
